RADUGA 8 [-]

Last updated on Sept. 26, 2020, 5:40 a.m. UTC

1 12351U 81027A   20269.44470171 -.00000021  00000-0  00000-0 0  9991
2 12351  11.1405 312.1428 0083078 209.3637 175.4292  1.00347464101565
UTC
Height (km)
Latitude
Longitude
Inclination
Orbital Period
UTC large
Height (km)
Speed (km/s)
/
Latitude / Longitude
Inclination (degrees)
Orbital Period (minutes)
Azimuth
Elevation
Range (km)
Doppler Factor
iOS Compass Heading
iOS Angle

Next 30 passes for location: Hong Kong

Rise time Rise Azimuth (degrees) Set time Set Azimuth (degrees) Duration Max altitude (degrees)

No matching passes for this satellites